This is the latest recevied weather packets stored in our database for station/object F5ZQC-13. If no packets are shown the sender has not sent any weather packets the latest 10 day(s).
| Time | Temp. | Humidity | Pressure | Rain* | Wind** | Luminosity | Snow |
|---|---|---|---|---|---|---|---|
| 1777878487 | 16.67° C | 55% | 1009.9 hPa | 0 mm | - | - | - |
| 1777878367 | 16.67° C | 57% | 1010.2 hPa | 0 mm | - | - | - |
| 1777878243 | 16.67° C | 57% | 1010.1 hPa | 0 mm | - | - | - |
| 1777878120 | 16.67° C | 55% | 1009.9 hPa | 0 mm | - | - | - |
| 1777877836 | 16.67° C | 56% | 1010.2 hPa | 0 mm | - | - | - |
| 1777877714 | 16.67° C | 61% | 1010 hPa | 0 mm | - | - | - |
| 1777877592 | 16.67° C | 55% | 1010.2 hPa | 0 mm | - | - | - |
| 1777877468 | 16.67° C | 57% | 1010.1 hPa | 0 mm | - | - | - |
| 1777877297 | 16.67° C | 57% | 1010.3 hPa | 0 mm | - | - | - |
| 1777877052 | 16.67° C | 57% | 1010.3 hPa | 0 mm | - | - | - |
| 1777876929 | 16.67° C | 55% | 1010.3 hPa | 0 mm | - | - | - |
| 1777876808 | 16.67° C | 57% | 1010.3 hPa | 0 mm | - | - | - |
| 1777876623 | 16.67° C | 57% | 1010.2 hPa | 0 mm | - | - | - |
| 1777876464 | 16.67° C | 57% | 1010.3 hPa | 0 mm | - | - | - |
| 1777876342 | 16.67° C | 59% | 1010.2 hPa | 0 mm | - | - | - |
| 1777876219 | 16.67° C | 57% | 1010.4 hPa | 0 mm | - | - | - |
| 1777875899 | 16.67° C | 57% | 1010 hPa | 0 mm | - | - | - |
| 1777875852 | 16.67° C | 57% | 1010 hPa | 0 mm | - | - | - |
| 1777875791 | 16.11° C | 57% | 1010.1 hPa | 0 mm | - | - | - |
| 1777875700 | 16.11° C | 55% | 1010.2 hPa | 0 mm | - | - | - |
| 1777875579 | 16.11° C | 55% | 1010.1 hPa | 0 mm | - | - | - |
| 1777875335 | 16.11° C | 59% | 1010 hPa | 0 mm | - | - | - |
| 1777875211 | 15.56° C | 59% | 1010.2 hPa | 0 mm | - | - | - |
| 1777875099 | 15.56° C | 57% | 1009.9 hPa | 0 mm | - | - | - |
| 1777875066 | 15.56° C | 57% | 1009.9 hPa | 0 mm | - | - | - |
* Rain since midnight (hover to see other rain measurements)
** Current wind speed in m/s (hover to see current wind gust speed)